This demonstration page uses our WeatherBlox Daily Observations layout. Learn more.

Left ArrowRight Arrow

38.88101, -77.10428

Hourly Observations for July 26, 2020

Temp ( °F °C ) Dew Point ( °F °C ) Humidity (%) Winds ( mph kmh ) Pressure ( in mb ) Visibility ( mi km ) Precip ( " mm )
12:52 am 00:52 Partly Cloudy 81 27.2 75 23.9 82 82 S 5 7 30.09 1019 10 16.0934 0 0
1:52 am 01:52 Mostly Cloudy 81 27.2 75 23.9 82 82 SSW 7 11 30.09 1019 10 16.0934 0 0
2:52 am 02:52 Mostly Cloudy 81 27.2 75 23.9 82 82 S 7 11 30.08 1019 10 16.0934 0 0
3:52 am 03:52 Mostly Clear 80 26.7 75 23.9 85 85 S 6 9 30.08 1019 10 16.0934 0 0
4:52 am 04:52 Clear 79 26.1 75 23.9 88 88 S 8 13 30.06 1018 10 16.0934 0 0
5:52 am 05:52 Mostly Clear 78 25.6 75 23.9 90 90 SW 5 7 30.08 1019 10 16.0934 0 0
6:52 am 06:52 Mostly Sunny 79 26.1 74 23.3 85 85 SW 5 7 30.08 1019 10 16.0934 0 0
7:52 am 07:52 Mostly Sunny 81 27.2 75 23.9 82 82 SSW 3 6 30.07 1018 10 16.0934 0 0
8:52 am 08:52 Partly Cloudy 85 29.4 74 23.3 70 70 WSW 3 6 30.07 1018 10 16.0934 0 0
9:52 am 09:52 Partly Cloudy 88 31.1 71 21.7 57 57 WNW 7 11 30.07 1018 10 16.0934 0 0
10:52 am 10:52 Partly Cloudy 90 32.2 69 20.6 50 50 NNW 12 19 30.06 1018 10 16.0934 0 0
11:52 am 11:52 Partly Cloudy 91 32.8 69 20.6 49 49 NNW 10 17 30.05 1018 10 16.0934 0 0
12:52 pm 12:52 Partly Cloudy 93 33.9 65 18.3 40 40 NW 12 19 30.04 1017 10 16.0934 0 0
1:52 pm 13:52 Partly Cloudy 94 34.4 65 18.3 38 38 Calm 30.03 1017 10 16.0934 0 0
2:52 pm 14:52 Partly Cloudy 94 34.4 66 18.9 40 40 WNW 13 20 30.01 1016 10 16.0934 0 0
3:52 pm 15:52 Partly Cloudy 94 34.4 63 17.2 36 36 W 10 17 30 1016 10 16.0934 0 0
4:52 pm 16:52 Partly Cloudy 94 34.4 63 17.2 36 36 WNW 15 24 30 1016 10 16.0934 0 0
5:52 pm 17:52 Partly Cloudy 94 34.4 64 17.8 37 37 WNW 10 17 29.98 1015 10 16.0934 0 0
6:52 pm 18:52 Partly Cloudy 93 33.9 66 18.9 41 41 VRB 3 6 29.97 1015 10 16.0934 0 0
7:52 pm 19:52 Mostly Cloudy 91 32.8 67 19.4 45 45 SW 8 13 29.96 1015 10 16.0934 0 0
8:52 pm 20:52 Mostly Cloudy 89 31.7 67 19.4 48 48 SW 7 11 29.97 1015 10 16.0934 0 0
9:52 pm 21:52 Mostly Cloudy 86 30 69 20.6 57 57 SW 8 13 29.97 1015 10 16.0934 0 0
10:52 pm 22:52 Mostly Cloudy 85 29.4 69 20.6 59 59 S 7 11 29.96 1014 10 16.0934 0 0
11:52 pm 23:52 Mostly Cloudy 83 28.3 73 22.8 72 72 SSW 3 6 29.96 1014 10 16.0934 0 0

Powered by AerisWeather